Regional Weather Roundup
Issued by NWS Northern Indiana

Home | Current Version | Previous Version | Text Only | Print | Product List | Glossary Off
Versions: 1 2 3 4 5 6 7 8 9 10 11 12 13 14 15 16 17 18 19 20 21 22 23 24 25 26 27 28 29 30 31 32 33 34 35 36 37 38 39 40 41 42 43 44 45 46 47 48 49 50

000
ASUS43 KIWX 302100
RWRIWX

KIWX WEATHER ROUNDUP
NATIONAL WEATHER SERVICE NORTHERN INDIANA
500 PM EDT THU JUL 30 2015

NOTE: "FAIR" INDICATES FEW OR NO CLOUDS BELOW 12,000 FEET WITH NO
SIGNIFICANT WEATHER AND/OR OBSTRUCTIONS TO VISIBILITY.

* THESE STATIONS ARE NOT UNDER NWS QUALITY CONTROL. THEY ALSO MAY NOT
  REPORT WEATHER SUCH AS PRECIPITATION OR FOG.

INZ001>027-302200-
NORTHERN INDIANA

CITY           SKY/WX    TMP DP  RH WIND       PRES   REMARKS
GARY*          MOSUNNY   88  52  29 W12G28    30.04F
KNOX*          SUNNY     84  52  32 NW10      30.03F
SOUTH BEND     SUNNY     85  54  34 NW14      30.05S
ELKHART*       SUNNY     84  52  32 NW16      30.04F
GOSHEN         SUNNY     82  57  42 NW12G21   30.04S
MONTICELLO*    SUNNY     85  57  39 NW12      30.05F
WARSAW*        SUNNY     82  55  39 W13       30.05S
ANGOLA*        SUNNY     84  57  39 NW12      30.02F
FORT WAYNE     MOSUNNY   84  54  35 NW9       30.04F
PERU/GRISSOM   MOSUNNY   85  56  37 W10G20    30.05S

$$
INZ028>050-302200-
CENTRAL INDIANA

CITY           SKY/WX    TMP DP  RH WIND       PRES   REMARKS
LAFAYETTE      SUNNY     84  57  39 NW10      30.06F
KOKOMO*        MOSUNNY   84  55  37 NW15G21   30.06S
MUNCIE*        MOSUNNY   83  57  41 NW13      30.06F
INDIANAPOLIS   MOSUNNY   85  54  34 NW16      30.08S

$$
MIZ043>046-050>051-056>058-064>065-071>073-077>080-302200-
SOUTHWEST LOWER MICHIGAN

CITY           SKY/WX    TMP DP  RH WIND       PRES   REMARKS
BATTLE CREEK   SUNNY     84  56  38 W20G25    30.01F
BENTON HARBOR  SUNNY     84  60  44 W13       30.02F
COLDWATER*     SUNNY     82  53  37 W14G21    30.01S
HILLSDALE*     MOSUNNY   83  54  36 W14G25    30.01S
HOLLAND        SUNNY     82  61  48 W12       30.00F
GRAND RAPIDS   MOSUNNY   83  55  38 NW20G29   29.98F
KALAMAZOO      SUNNY     84  55  36 NW16G26   30.01F
STURGIS*       SUNNY     82  55  39 NW10G18   30.02F
THREE RIVERS*  FAIR      84  53  33 NW13G20   30.02F

$$
OHZ001>008-015>018-024>025-302200-
NORTHWEST OHIO

CITY           SKY/WX    TMP DP  RH WIND       PRES   REMARKS
DEFIANCE       MOSUNNY   86  54  33 NW12G21   30.00F
FINDLAY        SUNNY     85  56  37 W16G23    29.99F
TOLEDO EXPRESS SUNNY     84  58  40 W15G22    29.97F
TOLEDO METCALF MOSUNNY   85  57  38 W18G26    29.98S
LIMA           MOSUNNY   83  58  42 W16G24    30.02F

$$
AND FOR LAKE MICHIGAN COASTAL AND OPEN LAKE BUOY OBSERVATIONS

STATION/POSITION TEMP    WIND        PRES    VSBY  WAVE
                 AIR SEA DIR/SP/G                  HT/PER
                 (F)     (DEG/KT/KT) (MB)    (MI)  (FT/S)
CALUMET HARBOR    87     300/  5/  9   N/A
MICHIGAN CITY     79     210/  5/  5   N/A
BURNS HARBOR      81      40/  1/  2 1017.6F
SAINT JOSEPH      77     190/  8/ 10 1017.9F
4 MI NW BRIDGMAN  75 74  260/  8/ 10   N/A           2/ 4
MICHIGAN CITY     77 75  220/  4/  6   N/A           1/ 4

$$
&&



USA.gov is the U.S. government's official web portal to all federal, state and local government web resources and services.